Location: Bacharowice
(49.9333°N, 19.5833°E)
Time: 23:52:08
(UTC+00:00)

Gbstr 26 Del rocket - Pass Details

Date: 11 May 2021
Orbit: 493 x 1263 km, 51.8° (Epoch: 21 June)

Event Time Altitude Azimuth Distance (km) Brightness Sun altitude
Rises 20:24:24 0° 281° (WNW) 4,163 8.0 -15.8°
Reaches altitude 10° 20:27:23 10° 283° (WNW) 3,139 7.3 -16.1°
Maximum altitude 20:35:07 83° 11° (N) 1,086 4.3 -16.7°
Enters shadow 20:41:22 11° 100° (E) 2,571 5.8 -17.2°
